Regional Weather Roundup
Issued by NWS Sioux Falls, SD

Home | Current Version | Previous Version | Graphics & Text | Print | Product List | Glossary Off
Versions: 1 2 3 4 5 6 7 8 9 10 11 12 13 14 15 16 17 18 19 20 21 22 23 24 25 26 27 28 29 30 31 32 33 34 35 36 37 38 39 40 41 42 43 44 45 46 47 48 49 50

000
ASUS43 KFSD 290810
RWRFSD

WEATHER ROUNDUP FOR SE SOUTH DAKOTA/SW MINNESOTA/NW IOWA
NATIONAL WEATHER SERVICE SIOUX FALLS SD
200 AM CST MON DEC 29 2014

NOTE: "FAIR" INDICATES FEW OR NO CLOUDS BELOW 12,000 FEET WITH NO
SIGNIFICANT WEATHER AND OR OBSTRUCTIONS TO VISIBILITY.


SDZ038>040-050-052>070-290900-
SOUTHEAST SOUTH DAKOTA

CITY           SKY/WX    TMP DP  RH WIND       PRES   REMARKS
CHAMBERLAIN    FLURRIES  10   6  86 NE8       30.32R WCI  -2
HURON          LGT SNOW   9   4  80 N10       30.39R WCI  -5
MADISON        FLURRIES   9   9 100 NE16      30.31S WCI  -9
MITCHELL       LGT SNOW  13   9  84 NE9       30.36R FOG     WCI   1
SIOUX FALLS    CLOUDY    12   7  80 NE16      30.32R WCI  -5
WINNER         LGT SNOW  13   9  84 NE14      30.27R WCI  -2
YANKTON        MOCLDY    18  12  79 NE10      30.32R WCI   6
$$

MNZ071-072-080-081-089-090-097-098-290900-
SOUTHWEST MINNESOTA

CITY           SKY/WX    TMP DP  RH WIND       PRES   REMARKS
FAIRMONT       CLOUDY    16  12  86 NE9       30.33R WCI   4
JACKSON        CLOUDY    18  14  86 N10       30.32R WCI   6
LUVERNE        MOCLDY    14  10  85 NE14      30.32R WCI  -1
MARSHALL       MOCLDY     9   1  72 N12       30.39R WCI  -6
MONTEVIDEO     PTCLDY    10   7  85 NE9       30.42R WCI  -2
PIPESTONE      FLURRIES   9   7  92 NE13      30.31S WCI  -7
REDWOOD FALLS  CLOUDY    13   3  64 N7        30.39R WCI   3
TRACY          CLOUDY    12   8  85 N12       30.37R WCI  -2
WINDOM         CLOUDY    12   7  79 N9        30.34R WCI   0
WORTHINGTON    MOCLDY    12 -29  14 N15       30.32R WCI  -4
$$

IAZ001>003-012>014-020>022-031-032-NEZ013-014-SDZ071-290900-
NORTHWEST IOWA

CITY           SKY/WX    TMP DP  RH WIND       PRES   REMARKS
CHEROKEE       LGT SNOW  20  18  93 NE7       30.29R WCI  11
DENISON        CLOUDY    19  18  93 NE10      30.24R WCI   8
ESTHERVILLE    LGT SNOW  17  15  92 NE10      30.32R FOG     WCI   5
LE MARS        CLOUDY    19  18  93 NE12G18   30.30R FOG     WCI   7
ORANGE CITY    LGT SNOW  19  16  86 NE8       30.29R WCI   9
SHELDON        FLURRIES  16  14  93 NE12      30.29R WCI   3
SIOUX CITY     LGT SNOW  21  16  81 NE7       30.30R WCI  12
SPENCER        FLURRIES  19  15  84 NE13      30.31R WCI   6
STORM LAKE     LGT SNOW  19  18  93 NE17      30.27R WCI   4
$$

ABBREVIATIONS USED IN REMARKS
   TC - TEMPERATURE IN CELSIUS
  WCI - WIND CHILL INDEX
   HX - HEAT INDEX
  VSB - VISIBILITY



USA.gov is the U.S. government's official web portal to all federal, state and local government web resources and services.